[Date Prev][Date Next][Thread Prev][Thread Next] - [Date Index][Thread Index][Author Index]
2 Line ISS Keps 2-6
- Subject: [sarex] 2 Line ISS Keps 2-6
- From: "Dave Larsen PhD" <doc@xxxxxxxxxxx>
- Date: Wed, 6 Feb 2002 02:34:44 -0800
ISS
1 25544U 98067A 02037.20087963 .00074069 00000-0 89109-3 0 422
2 25544 51.6393 351.4416 0006229 43.7478 156.1436 15.60142391183599
----
Via the sarex mailing list at AMSAT.ORG courtesy of AMSAT-NA.
To unsubscribe, send "unsubscribe sarex" to Majordomo@amsat.org
AMSAT Home